Zurück zum Katalog

RADUGA 13

AktivMilitärGEO
NORAD 14307·PAYLOAD·🇷🇺 Russia

Gestartet Aug 25, 1983 von Baikonur Cosmodrome

Loading…

TLE

AktuellSource: Space-Track

Epoche: Sep 14, 2026, 12:35 UTC

1 14307U 83088A   26257.52481164 -.00000176  00000-0  00000-0 0  9990
2 14307   9.3613 312.1131 0017339  67.3225 348.1581  0.98175603119829

Verfolge RADUGA 13 in Echtzeit mit AllMySat

Download on the App Store